Theta_e
317 318 317 317 317 318 319 320 322 324 325 325 326 328 328 330 330 330 330 330 330 330 330 330 329 328 327 326 324 320 317 318 318 319 320 322 323 323 322 321 319 319 319 321 321 323 326 328 327 326 327 326 325 325 321 316 316 318 320 320 319 320 320 319 319 316 315 316 315 314 315 321 322 316 315 318 320 322 323 325 326 326 326 328 329 326 331 336
316 317 317 317 316 317 318 319 320 321 324 325 325 327 328 329 330 330 330 329 330 329 329 329 328 328 325 323 323 319 316 317 318 320 320 320 322 323 323 322 321 319 319 322 323 324 325 328 329 327 327 327 325 325 323 317 316 318 319 318 319 321 319 316 316 314 314 315 314 313 313 318 321 317 317 319 320 322 323 325 326 327 328 329 329 329 333 336
316 316 317 317 316 316 317 318 318 319 322 325 325 326 327 328 329 329 330 329 330 329 328 328 328 327 322 321 323 320 318 319 320 321 319 317 321 322 323 323 321 319 320 322 323 323 324 327 329 327 328 327 325 325 325 320 317 317 317 320 319 319 317 314 314 313 312 312 313 313 311 314 318 316 317 320 321 321 321 323 325 327 328 330 330 332 334 335
315 316 317 317 317 316 317 317 317 318 321 324 325 326 327 328 328 329 329 330 330 329 328 327 328 326 321 320 322 321 319 320 322 321 319 318 321 321 321 322 321 320 319 321 322 323 324 327 329 328 328 329 325 324 326 321 317 318 318 321 317 315 315 313 312 311 310 310 311 313 311 314 315 314 317 319 320 321 321 322 323 324 327 330 330 332 334 335
315 315 316 317 317 316 316 317 317 317 320 323 324 325 326 327 328 328 329 330 329 328 328 327 328 325 321 319 320 319 320 325 324 321 321 321 321 320 320 322 321 321 320 321 323 324 326 327 329 329 328 329 326 327 326 317 315 319 316 316 314 313 315 312 310 309 309 308 310 312 313 314 313 313 317 318 320 321 319 320 321 322 326 331 330 332 334 335
314 315 315 316 317 316 315 317 317 317 318 321 323 323 324 327 328 328 329 329 329 328 328 327 327 325 322 320 320 319 323 328 322 320 323 322 321 319 320 321 321 322 322 323 325 326 327 327 326 328 328 329 329 329 324 314 314 321 316 311 311 311 312 311 309 308 308 308 311 312 312 313 313 315 315 316 319 318 315 316 317 320 327 332 332 333 334 335
314 314 315 316 316 317 316 316 317 317 317 319 322 323 323 325 327 329 329 329 328 328 328 327 327 325 323 322 322 321 323 325 319 318 323 323 322 320 321 322 321 323 323 325 326 326 326 326 326 327 329 329 330 330 323 315 314 320 317 310 310 310 309 310 309 308 307 308 311 311 311 312 314 315 314 315 317 316 318 317 314 319 329 332 332 333 334 336
314 314 315 315 316 316 316 316 317 317 317 318 321 322 322 323 325 327 328 329 329 328 327 327 326 324 323 323 323 322 323 322 318 318 321 322 322 320 322 322 323 324 324 325 325 326 326 325 327 326 328 328 330 330 321 318 318 320 318 310 308 309 309 311 311 309 307 308 308 308 311 313 313 313 311 314 316 315 320 320 317 323 330 330 331 332 335 336
313 314 314 314 315 315 315 316 317 317 318 318 320 322 322 322 323 325 327 328 328 328 327 326 325 322 323 323 322 323 323 321 318 319 321 323 322 321 322 323 324 324 324 326 325 327 325 325 327 327 329 327 329 329 320 322 324 321 317 312 310 311 313 314 313 310 309 310 309 309 312 313 311 310 312 315 314 316 320 322 323 326 328 329 330 332 335 336
312 313 314 314 314 314 314 315 316 317 317 317 319 321 321 321 322 324 327 327 327 327 326 325 322 321 323 321 321 324 322 320 319 319 322 323 321 322 323 323 325 324 325 326 326 326 325 326 328 327 329 327 328 328 322 324 325 320 317 315 315 316 317 316 317 315 312 311 309 310 313 312 309 310 315 314 312 316 320 323 325 325 327 329 330 332 334 335
312 312 313 313 313 313 313 314 315 316 316 316 318 320 321 321 321 323 326 327 326 326 326 324 321 322 322 318 321 323 320 320 319 319 321 321 321 322 324 324 324 324 325 325 326 326 326 328 327 327 329 327 327 325 322 321 320 317 317 318 318 319 320 318 321 319 313 313 310 310 312 311 309 310 315 315 313 316 320 324 326 325 327 329 330 331 333 334
312 312 312 313 313 313 313 313 313 314 315 315 317 319 321 321 321 321 324 326 327 326 326 322 322 323 320 318 321 321 320 319 318 319 321 319 321 323 324 324 324 324 325 326 326 325 326 327 325 326 327 326 326 325 324 320 317 317 317 322 323 322 323 322 324 320 315 317 310 309 314 313 312 312 313 314 314 318 320 324 326 325 327 328 330 330 332 334
312 312 312 312 313 312 312 312 312 313 314 315 316 316 319 321 322 321 321 325 326 326 325 322 323 321 319 320 319 319 320 319 317 318 320 320 321 322 323 324 324 324 325 326 325 324 325 326 325 325 324 326 325 322 322 317 317 321 319 324 327 328 328 323 321 318 317 318 311 311 319 318 315 314 312 313 315 318 319 321 323 325 327 327 329 330 331 333
312 312 312 312 312 312 312 312 312 313 314 314 315 315 316 318 322 322 321 323 326 325 324 323 323 320 320 321 317 318 319 318 319 318 321 322 320 321 322 322 323 324 324 324 324 323 324 324 324 323 321 322 320 318 319 317 320 323 321 324 326 331 331 320 314 315 320 316 308 314 321 321 318 316 313 312 315 317 316 319 321 324 325 325 328 328 329 332
311 312 312 312 312 312 312 312 312 313 314 314 315 315 314 315 318 321 323 324 325 325 324 323 321 320 322 321 316 317 319 320 321 320 321 322 321 321 320 321 322 322 323 323 323 323 323 324 323 323 319 317 318 320 321 321 321 322 327 330 326 329 330 322 313 312 319 312 307 317 324 320 318 316 311 310 314 315 314 317 319 323 325 324 327 327 329 330
310 310 311 311 312 312 312 312 312 313 313 314 315 315 315 314 315 318 321 324 325 324 323 322 319 319 323 322 318 318 320 322 322 321 321 320 322 320 318 320 320 320 321 321 322 322 323 323 320 320 319 318 322 324 324 325 323 321 327 333 328 327 328 325 316 309 312 311 308 316 321 318 315 314 310 308 312 315 314 315 316 320 323 323 325 326 328 329
309 309 310 310 310 311 311 311 312 312 313 313 314 315 315 314 314 316 318 322 325 323 323 322 319 319 322 320 318 320 321 322 321 319 319 319 321 320 318 319 319 320 320 320 322 321 322 321 318 320 321 322 324 325 330 334 329 323 325 330 328 324 325 326 319 310 309 312 313 313 314 316 315 314 312 309 311 314 314 315 314 317 319 321 324 325 327 328
309 309 309 309 309 310 310 311 311 311 312 312 313 314 315 314 313 314 315 320 324 323 323 322 319 322 323 319 319 321 321 320 319 318 317 317 319 319 318 318 318 320 319 319 321 320 320 319 319 323 324 324 325 326 334 335 331 327 326 329 328 323 322 323 320 312 309 312 314 314 313 315 314 312 312 311 311 312 313 314 314 314 316 319 322 324 326 327
308 308 308 308 309 309 309 309 310 310 311 312 313 314 315 315 314 314 315 319 324 325 325 323 321 325 325 320 320 321 321 320 318 317 316 315 317 318 317 318 319 320 320 320 320 319 320 321 322 326 327 326 326 327 332 332 330 329 327 329 330 328 324 321 318 311 308 311 313 314 315 315 315 313 313 313 313 312 312 312 313 313 313 316 319 322 324 326
308 308 308 308 307 307 307 308 308 309 309 311 313 314 315 317 317 317 317 320 324 325 325 322 321 324 322 320 320 320 319 319 318 316 315 315 316 317 316 318 320 320 321 322 322 320 320 325 326 327 328 326 326 327 327 327 328 329 328 327 328 328 327 321 316 309 307 313 316 314 314 313 313 313 312 312 313 311 311 312 312 312 314 314 316 319 322 324
308 308 308 307 307 306 306 306 306 307 308 310 313 314 315 316 317 318 319 321 323 323 323 321 321 322 321 320 320 319 318 319 318 315 315 315 317 317 317 318 322 323 324 322 321 319 321 328 328 325 327 325 325 326 325 324 326 327 327 327 327 327 326 320 315 311 307 313 319 314 313 314 313 313 312 312 312 311 311 312 312 312 313 314 315 316 319 321
308 308 308 307 307 307 306 306 305 306 308 310 313 314 314 314 316 318 321 323 324 323 322 320 320 321 321 320 320 319 319 320 319 315 313 314 317 319 317 319 324 324 322 321 321 321 323 329 328 324 325 325 324 324 324 325 324 326 326 326 329 325 323 320 314 310 308 313 320 315 313 315 315 314 313 312 311 311 311 311 312 313 313 313 313 314 316 317
307 308 308 308 308 308 307 306 306 307 310 312 312 313 313 314 314 316 318 322 324 323 321 321 320 321 321 321 320 319 320 320 319 316 313 313 316 318 318 320 323 321 319 322 324 326 327 328 326 323 324 324 324 322 323 324 323 324 324 327 328 322 323 325 316 310 309 311 313 312 311 314 315 315 314 313 312 311 312 311 311 312 313 313 313 314 314 314
307 308 308 308 307 307 307 307 308 309 311 312 312 312 312 313 313 315 316 320 323 322 321 320 320 321 321 321 320 319 320 320 319 317 313 313 317 318 318 320 321 318 318 322 325 326 326 325 323 321 322 323 322 320 321 324 324 321 322 327 326 321 321 322 316 312 312 310 309 311 316 318 318 319 317 315 313 311 311 311 311 311 312 312 313 313 313 312
307 307 307 307 306 307 307 308 309 310 310 311 312 312 311 312 313 315 316 318 321 321 321 320 320 321 320 320 320 319 321 320 319 317 313 313 318 319 319 320 320 320 320 321 325 326 322 319 320 320 321 322 322 321 322 324 325 322 321 323 324 322 321 317 315 317 321 320 312 312 323 324 318 318 318 316 314 312 312 311 310 311 310 311 311 311 312 312
306 306 306 306 305 306 307 308 309 310 310 311 312 312 311 311 313 314 316 317 319 321 322 321 321 321 320 321 320 319 323 322 319 316 313 315 318 318 320 320 318 320 321 320 324 324 318 315 319 321 321 323 323 322 322 323 326 326 321 320 321 321 319 316 316 320 326 324 313 311 321 323 318 317 318 316 316 314 314 312 311 311 310 310 310 309 311 311
306 306 306 305 304 305 307 308 309 309 310 310 311 311 311 311 313 313 315 317 319 321 322 320 320 321 321 321 319 320 324 322 318 316 313 315 316 315 320 319 317 320 319 321 325 322 314 314 319 321 321 323 324 324 321 322 327 327 319 316 318 318 319 318 318 321 320 317 315 313 315 319 318 318 317 316 317 317 316 315 314 313 312 311 310 310 310 310
305 305 305 305 305 305 306 308 309 309 309 310 310 310 311 312 313 313 315 318 320 322 322 319 318 319 320 320 319 321 323 321 321 319 313 313 315 314 319 319 318 320 318 322 328 320 314 317 319 319 321 323 324 323 319 320 325 322 314 315 318 317 319 318 316 318 315 315 322 318 314 321 324 319 315 313 315 317 317 317 316 315 314 313 311 311 311 311
305 305 305 305 305 304 304 306 308 308 309 310 309 310 312 313 313 312 315 319 320 320 319 319 318 318 320 321 320 320 321 321 323 319 313 314 313 313 318 318 317 319 316 318 323 318 313 315 317 319 322 322 321 319 317 321 322 316 313 315 315 315 317 317 318 319 316 318 325 321 316 323 327 321 318 315 314 317 318 317 317 316 316 315 313 313 313 312
304 305 304 305 305 305 305 306 306 307 308 309 309 311 312 313 312 312 314 318 319 318 318 319 319 320 322 322 320 320 321 319 318 315 314 315 313 313 317 317 316 317 315 315 315 313 310 310 314 317 318 318 316 315 317 320 317 313 314 314 314 316 317 318 320 319 320 323 324 321 317 320 325 324 322 319 315 315 317 317 317 315 315 315 314 313 312 310
304 304 304 304 304 305 306 306 305 306 307 308 310 312 312 312 312 312 314 316 319 319 319 319 320 322 323 322 321 322 320 317 316 316 315 315 315 317 319 319 320 319 318 318 314 311 311 313 314 313 311 313 315 315 314 314 313 313 315 316 317 319 317 318 318 318 324 327 320 314 313 317 324 323 319 318 315 312 313 314 315 314 314 314 314 312 310 309
304 304 304 304 304 305 305 305 306 306 306 307 310 312 313 313 312 313 315 317 319 320 320 320 321 323 323 322 322 322 319 317 317 317 317 317 317 320 321 321 322 323 323 323 317 313 314 314 312 311 310 313 317 317 313 311 313 315 315 319 323 322 321 324 323 321 325 324 312 308 311 315 320 320 317 317 316 314 313 312 312 313 312 312 313 311 309 309
303 303 304 304 304 304 304 305 306 307 307 307 310 312 312 312 312 313 315 317 318 319 319 320 321 323 322 322 323 321 320 319 318 318 317 317 318 320 322 321 321 326 327 323 318 315 316 313 311 312 312 313 317 319 316 312 314 316 317 323 326 325 327 331 327 324 326 320 309 307 313 316 319 318 315 316 316 314 312 311 311 311 310 311 310 309 309 309
303 303 303 303 304 304 304 305 305 306 308 309 309 310 311 311 312 312 314 314 316 318 319 320 322 323 322 323 323 321 321 320 318 319 318 317 318 321 322 320 320 324 325 321 318 319 321 318 314 315 314 314 316 318 317 314 314 316 318 321 324 324 328 332 329 327 327 319 311 310 317 322 321 317 312 311 312 311 310 309 308 308 308 307 307 308 310 310
303 302 302 303 303 302 303 305 305 305 308 309 309 311 312 312 311 311 312 313 314 316 319 321 322 322 322 322 321 320 320 320 318 319 318 317 319 321 322 321 319 320 322 322 319 319 322 317 312 313 313 313 316 316 314 315 315 316 315 318 322 322 321 321 320 319 319 318 315 313 317 319 317 315 313 313 313 311 311 309 306 308 308 308 310 311 312 312
302 302 302 302 302 302 302 304 305 305 307 309 311 313 312 312 310 311 312 314 314 315 318 323 322 322 322 321 321 321 319 319 319 319 317 317 319 321 322 320 319 319 321 322 319 318 320 315 309 311 312 312 315 315 313 316 317 315 315 318 318 315 315 316 315 311 312 320 322 315 316 317 316 317 315 313 314 312 312 311 308 310 311 313 316 316 315 314
302 301 301 302 302 302 302 304 305 306 307 309 312 313 313 311 310 314 315 314 315 315 318 323 323 322 321 321 321 320 318 319 319 319 318 318 320 320 321 320 318 319 320 318 316 316 317 313 308 310 313 311 311 313 313 314 315 316 317 317 315 314 315 316 318 314 313 320 321 314 316 318 318 320 315 311 314 314 314 313 310 310 312 314 316 316 315 313
302 301 301 302 301 302 303 304 305 306 308 310 311 313 313 311 311 315 316 314 316 317 318 321 323 322 321 321 320 318 318 320 319 319 319 320 322 320 319 320 318 317 318 316 316 315 314 313 309 309 311 309 308 313 315 312 312 313 315 316 316 319 319 317 319 319 318 320 319 314 313 313 315 318 314 314 315 314 314 313 311 310 311 313 314 316 315 314
301 301 301 301 301 302 303 305 306 307 308 310 311 312 312 311 311 314 315 315 316 318 319 320 320 321 321 321 319 317 319 320 318 319 320 321 322 320 318 319 318 316 314 313 315 314 313 315 312 308 309 310 310 313 317 315 312 311 313 315 315 317 319 318 318 320 320 321 320 317 315 314 315 315 314 316 315 312 313 313 312 311 311 313 314 315 317 318
300 301 302 301 301 302 303 305 307 307 309 311 312 313 312 311 312 313 314 316 316 317 319 319 318 320 321 320 319 318 320 320 318 320 321 321 321 320 318 317 317 315 313 312 314 313 311 313 313 309 308 311 313 314 316 316 314 313 314 316 315 313 314 316 316 315 316 318 317 318 319 318 314 312 312 314 313 313 314 313 314 312 311 313 315 315 318 319
300 301 302 302 302 302 305 307 308 309 311 312 313 312 311 311 313 314 314 317 317 318 319 319 319 319 320 320 320 319 320 319 318 320 322 320 319 320 319 316 315 314 311 312 314 312 311 312 313 310 309 312 313 313 314 315 314 315 315 316 317 314 313 317 319 313 312 314 314 314 317 318 314 310 311 312 312 312 311 310 311 310 309 311 316 317 318 317
300 301 302 303 303 304 307 309 310 311 313 313 312 312 311 312 314 314 314 316 318 318 318 319 319 319 319 320 319 319 320 320 319 320 321 321 319 319 319 315 314 312 311 313 314 311 311 312 312 311 311 312 310 308 309 312 312 313 313 314 317 315 313 318 320 314 311 312 311 310 314 318 314 311 310 310 310 308 307 308 309 309 310 312 316 319 318 316
300 301 302 303 304 307 309 311 312 313 313 312 311 311 312 312 314 315 315 316 316 316 317 318 318 319 319 319 319 320 320 319 320 320 320 321 318 317 317 315 314 312 311 313 313 311 311 312 312 311 310 310 308 307 307 308 309 311 311 310 314 315 314 315 315 314 314 313 312 313 317 318 313 311 310 309 308 308 309 310 311 313 315 315 317 320 320 317
300 301 302 301 304 308 311 313 314 313 312 312 311 312 313 312 314 315 315 316 316 316 317 318 318 319 319 318 318 320 320 320 322 320 319 321 316 313 315 316 314 313 313 313 312 312 313 313 312 312 312 312 311 310 311 309 308 311 312 310 312 315 314 313 311 311 314 317 315 317 319 317 312 312 312 310 309 309 309 309 310 314 316 315 316 318 318 316
299 301 302 302 304 309 312 314 314 312 311 311 311 313 314 313 314 315 315 315 316 316 318 318 318 318 318 318 318 320 320 322 322 318 317 317 312 311 315 316 313 313 314 315 314 314 314 314 313 314 315 315 315 314 314 312 309 310 311 311 312 314 314 313 312 312 315 317 316 317 318 315 311 311 312 309 309 309 309 308 308 310 313 315 317 319 319 317
300 301 303 305 307 309 312 314 313 312 311 311 311 313 314 314 315 314 314 315 316 316 319 319 319 318 318 318 319 321 320 321 321 318 316 314 309 309 313 315 314 314 317 319 317 315 314 313 314 316 316 317 317 317 315 312 310 311 312 312 312 314 314 314 314 314 316 315 315 316 317 314 311 311 312 311 310 311 311 311 309 309 313 317 320 321 318 314
299 301 303 307 310 311 312 313 313 312 311 310 311 312 314 315 315 315 315 316 316 317 318 319 318 319 318 318 320 321 318 318 319 317 316 313 309 309 312 314 315 316 319 318 315 315 315 314 314 316 317 317 318 317 314 312 312 312 313 313 312 313 315 315 315 316 315 315 316 317 317 316 314 312 312 313 311 311 312 312 311 309 311 314 316 314 311 309
299 302 303 307 312 314 314 313 312 313 312 310 311 313 314 315 316 316 316 316 316 316 318 318 318 318 318 318 320 320 317 317 318 315 312 311 309 310 312 313 314 316 317 314 312 315 315 314 315 316 315 314 314 315 314 313 313 313 312 313 313 312 314 315 316 316 315 316 318 318 317 317 315 312 312 312 312 312 313 313 311 308 309 311 311 310 310 311
300 302 303 306 310 313 313 312 312 313 312 311 312 313 314 315 315 315 315 315 316 316 317 318 318 318 318 319 320 319 317 318 318 314 310 310 310 311 312 312 313 313 314 312 312 315 315 315 315 314 313 311 312 314 315 314 314 313 312 313 312 312 313 314 314 315 315 315 316 317 316 315 315 313 312 313 313 313 313 313 311 310 311 312 312 311 312 312
300 302 304 306 308 310 313 313 312 312 312 312 312 313 314 315 315 315 314 314 316 317 317 317 317 317 318 319 320 319 318 319 319 315 312 312 311 311 312 313 312 312 313 313 312 313 315 314 312 312 312 309 309 312 314 314 314 313 313 313 312 312 313 313 314 314 314 314 314 314 314 314 313 312 312 313 313 311 311 311 311 311 312 312 312 312 312 312
300 303 306 309 309 309 312 314 313 312 312 312 312 312 313 315 315 314 314 314 315 317 317 316 316 318 318 318 319 318 317 317 318 315 312 313 313 312 313 313 312 312 313 314 312 312 313 311 310 312 313 309 308 310 312 312 313 313 313 314 313 313 313 313 313 313 313 314 313 313 314 313 312 312 312 311 310 310 310 311 311 312 312 312 312 312 312 311
300 302 305 309 310 310 311 313 314 312 311 311 312 312 313 314 314 314 314 313 314 316 317 316 316 317 318 318 319 318 317 317 317 314 313 314 314 314 314 314 312 312 313 313 312 312 312 310 310 312 314 311 310 311 312 313 313 313 314 314 313 313 313 312 312 312 313 313 313 313 313 313 312 312 311 311 310 311 311 311 312 313 313 313 312 311 311 311
Wind_Speed
13 13 14 14 15 15 15 17 19 17 15 16 18 18 21 23 23 27 29 30 27 24 23 21 20 20 19 17 19 25 27 26 20 12 11 14 17 8 5 9 12 15 12 9 10 9 6 7 7 7 6 5 2 1 1 1 0 1 1 2 3 2 2 1 1 0 0 1 2 2 4 7 4 3 2 2 4 1 3 4 2 2 3 2 1 2 9 17
14 13 13 14 15 15 15 15 18 20 18 15 17 18 20 23 24 26 26 27 27 26 25 23 21 20 20 19 20 25 25 22 14 13 22 22 15 8 6 9 13 16 14 10 9 8 6 6 7 6 3 2 1 1 0 1 1 1 1 2 3 1 1 1 1 0 1 2 2 1 3 5 4 2 3 4 5 4 5 6 4 5 6 4 1 5 14 18
13 13 12 13 14 14 15 13 15 20 21 17 16 18 19 21 24 25 25 27 29 28 27 24 22 21 21 19 19 26 23 13 5 14 30 30 19 11 7 11 13 17 16 11 9 8 7 8 9 6 2 1 1 0 3 1 1 0 1 4 1 2 1 0 0 0 2 3 3 1 2 5 4 2 3 4 4 6 9 8 7 9 10 8 6 10 17 19
13 13 12 12 13 14 13 13 13 16 21 19 16 18 18 19 22 26 27 30 31 29 27 25 23 22 23 22 21 25 19 7 3 17 33 33 26 17 9 13 14 17 16 11 9 8 9 12 8 5 3 2 2 1 4 2 1 2 2 3 3 3 2 3 2 1 1 3 4 1 2 3 3 3 4 4 5 7 11 10 10 11 11 11 9 13 19 20
14 13 11 11 12 14 14 13 14 14 18 20 18 18 18 18 20 25 28 31 33 31 29 27 23 23 26 26 24 23 16 4 4 15 29 32 30 23 13 17 18 17 17 12 9 10 11 12 7 4 3 3 4 3 4 2 0 3 2 1 4 3 2 4 1 1 1 2 2 2 1 1 3 4 7 8 9 6 3 5 9 10 9 13 13 15 19 20
15 13 12 12 12 14 15 13 14 15 16 18 19 19 18 19 20 25 28 31 34 33 31 28 25 24 27 27 25 23 13 4 2 5 21 32 31 25 18 22 20 19 18 14 12 13 10 9 7 6 4 3 6 5 2 3 1 3 2 2 3 2 1 3 1 0 1 3 3 2 1 1 3 5 6 10 14 5 4 2 4 5 7 13 15 17 19 20
15 14 12 12 12 13 16 14 13 14 15 16 19 20 18 18 20 25 28 30 32 32 31 29 26 25 27 27 24 20 11 4 2 2 14 29 29 24 23 24 23 22 20 16 15 13 10 10 9 6 6 4 6 5 3 3 1 5 4 4 4 2 1 2 3 1 2 5 3 2 1 3 6 4 2 8 16 8 3 2 1 2 7 13 14 16 19 22
15 14 13 13 13 13 15 15 14 13 14 15 16 20 19 16 19 23 28 31 32 32 31 29 28 27 30 29 19 12 11 6 3 1 14 23 22 22 25 26 25 24 21 19 17 14 11 11 10 7 7 5 4 6 4 3 3 7 5 4 3 1 1 2 4 1 1 4 2 3 5 4 5 1 1 10 14 8 3 2 3 5 9 12 13 15 17 20
15 14 14 14 13 13 14 15 14 14 14 14 14 17 20 18 17 21 26 32 34 33 30 30 28 29 32 27 14 8 13 11 1 5 20 24 23 25 29 28 27 25 20 18 18 16 12 11 10 6 5 5 5 6 6 7 4 6 4 4 3 1 3 4 3 0 1 3 1 4 7 3 2 1 5 12 9 5 6 4 5 7 9 11 11 13 16 18
16 15 14 14 14 13 14 15 15 14 13 13 13 13 20 21 18 19 25 30 33 32 30 29 28 32 32 21 12 8 12 17 6 9 25 28 28 29 29 29 27 23 18 15 18 18 13 9 9 5 3 5 5 5 7 8 1 2 5 2 2 2 3 2 4 3 3 3 3 6 7 1 1 2 6 5 1 4 7 5 6 8 10 11 10 12 15 16
15 15 14 14 14 13 14 16 15 14 13 13 12 12 17 21 21 19 23 29 31 31 31 30 31 36 30 18 13 7 10 19 11 11 25 27 29 29 26 27 26 22 18 14 14 14 11 11 12 6 3 5 6 5 5 4 3 4 5 1 3 4 5 5 8 6 2 3 4 5 7 3 2 4 6 0 3 5 7 6 6 8 9 10 11 11 12 14
15 15 15 14 14 13 13 15 15 14 13 12 13 13 14 18 22 20 20 29 33 31 32 31 34 35 25 13 10 6 11 19 13 14 23 25 28 27 22 25 24 22 20 15 10 9 13 17 15 6 3 8 7 4 4 3 4 5 4 1 2 4 7 8 10 5 2 3 4 3 8 7 7 8 7 1 3 5 6 6 6 8 7 7 10 9 10 12
15 15 15 14 13 13 13 14 14 14 12 12 13 13 14 13 17 19 17 25 35 35 34 34 36 33 18 7 6 9 12 15 14 15 22 24 25 22 20 22 20 20 20 16 11 11 17 18 11 6 5 7 5 3 5 5 3 5 3 2 1 4 6 5 6 5 6 4 5 3 8 8 6 9 7 2 4 5 5 7 7 7 6 6 7 7 9 12
14 14 15 14 13 13 13 13 13 13 11 11 13 13 15 13 13 16 15 23 35 36 36 37 38 30 12 3 6 11 12 12 16 18 21 23 21 17 17 18 16 16 16 15 14 13 16 14 10 9 4 2 5 5 7 5 2 4 3 2 1 4 2 3 3 6 8 3 6 6 9 8 5 5 3 3 5 7 7 9 8 7 6 6 7 8 9 11
14 14 14 14 14 13 12 13 12 12 12 10 12 12 14 15 13 13 14 23 36 41 39 38 33 21 7 2 6 14 14 13 17 21 23 23 21 15 13 15 12 11 12 12 15 14 13 13 10 8 4 2 7 8 5 4 2 2 3 3 2 5 3 3 3 4 5 1 5 9 7 7 7 5 1 1 5 8 10 10 8 8 7 6 7 8 9 10
14 13 14 14 13 13 12 13 12 11 12 10 11 10 12 14 14 13 12 20 36 43 38 30 24 15 5 3 9 16 14 12 17 22 24 25 22 17 14 14 12 9 10 11 14 13 11 9 4 4 5 5 8 6 4 3 2 1 4 4 4 6 5 1 3 1 2 0 5 10 6 4 4 3 1 1 5 8 10 10 9 8 7 7 7 7 8 8
13 13 13 13 13 13 13 13 12 11 11 10 10 9 9 11 13 13 10 16 34 45 37 28 26 14 2 6 12 14 12 12 20 23 24 23 22 22 19 13 10 12 13 12 13 11 8 5 3 2 4 5 6 7 6 5 3 2 3 5 4 6 4 3 3 3 1 3 6 8 8 10 8 6 3 2 4 7 9 10 9 7 7 7 7 7 8 8
13 12 13 13 13 13 12 13 13 11 10 9 8 7 7 7 11 13 12 14 27 39 30 22 26 13 4 10 12 12 15 19 24 25 22 20 22 23 16 9 11 15 13 9 8 7 5 3 3 5 6 6 7 9 9 7 7 6 6 6 5 5 5 5 3 2 1 3 6 7 8 14 13 11 11 4 4 7 11 9 7 7 8 8 7 8 9 9
13 12 12 12 12 12 11 12 13 12 10 8 7 6 4 3 6 11 14 14 15 19 12 12 18 9 3 11 11 12 23 28 25 22 20 19 21 20 14 11 13 14 11 7 7 7 5 4 5 8 9 10 11 13 12 8 10 11 8 7 6 6 6 5 2 2 2 2 7 9 10 13 13 11 13 8 5 7 12 9 7 7 8 7 8 8 9 10
12 12 11 12 12 11 11 11 12 11 10 8 7 4 2 2 1 6 9 9 11 10 5 17 23 8 6 10 14 21 25 27 20 15 20 22 21 18 12 12 12 10 10 10 10 8 6 8 9 10 12 14 14 15 11 5 8 10 7 7 7 6 5 2 2 2 1 4 7 7 9 12 13 12 12 10 5 7 12 11 9 9 8 7 8 9 10 11
14 13 12 11 10 10 10 10 11 11 10 9 8 5 2 6 7 3 4 5 14 14 5 17 22 8 11 18 23 27 18 16 14 10 21 24 20 17 10 11 13 10 11 12 9 6 5 10 10 10 13 14 14 14 9 4 5 8 7 7 7 6 5 2 1 1 2 3 6 5 8 13 14 13 12 10 9 11 12 12 12 12 10 8 8 10 10 10
15 14 12 11 9 9 8 9 11 10 10 10 11 7 3 8 10 2 2 3 13 14 3 10 13 10 15 22 28 30 13 8 14 11 21 24 17 14 10 13 15 9 10 11 8 6 6 9 11 12 13 13 12 12 11 9 8 7 6 5 6 4 3 3 3 1 1 2 7 6 8 14 15 14 14 12 12 12 12 13 13 13 11 9 9 10 9 9
14 13 12 11 10 9 8 8 9 8 12 14 13 11 6 10 13 3 3 4 7 10 8 11 12 13 19 17 22 28 13 9 14 13 23 23 14 13 11 14 14 9 10 11 9 8 6 8 14 13 12 14 12 11 11 9 6 4 5 6 5 2 2 4 3 2 2 2 6 8 9 12 14 14 15 14 13 12 11 12 13 12 12 12 10 9 8 10
14 13 11 12 11 9 7 7 8 10 16 18 18 19 10 7 11 6 3 4 5 4 10 17 15 13 18 19 25 25 11 9 11 15 23 20 13 12 12 13 12 9 9 12 14 9 3 6 13 12 12 15 11 10 11 8 5 4 5 7 5 3 4 3 1 1 3 3 2 8 10 9 10 12 13 10 9 10 10 9 11 10 10 11 11 9 8 9
14 12 9 10 9 8 7 6 9 14 16 18 20 22 16 10 7 2 3 3 5 2 7 17 12 9 16 20 25 17 9 8 7 15 22 19 16 12 10 10 7 10 13 14 13 8 3 7 11 12 11 14 11 10 11 8 6 4 6 9 7 5 6 2 1 3 5 4 1 4 8 5 2 7 9 5 5 8 7 7 9 8 8 10 10 10 10 9
14 12 10 10 8 8 7 5 10 15 14 16 18 16 17 16 8 4 3 3 5 2 6 11 8 14 19 15 15 12 10 8 4 17 25 19 16 8 8 8 1 8 16 11 7 4 3 6 11 14 13 13 11 9 11 11 6 3 5 8 7 6 4 3 2 3 4 4 1 1 6 6 4 8 10 8 9 10 8 9 9 8 7 9 9 10 10 10
14 13 12 10 10 11 8 5 9 14 11 13 18 16 16 17 11 7 3 5 6 4 8 7 4 19 22 15 19 15 9 8 6 14 22 17 13 5 8 10 3 7 12 7 4 2 6 9 10 13 12 11 10 9 11 13 9 3 5 9 9 7 6 5 4 3 3 4 3 3 3 8 9 9 9 9 12 14 13 13 11 9 10 10 10 10 10 11
15 14 12 11 12 14 13 7 7 14 15 8 13 19 18 17 14 9 2 7 4 4 7 5 5 17 18 15 20 11 8 17 11 12 16 13 10 4 8 13 11 13 11 9 8 2 6 11 13 14 11 9 8 7 12 13 7 2 5 9 8 6 5 4 2 2 1 4 6 4 3 7 9 4 4 5 10 15 14 13 12 11 12 11 10 10 10 11
15 14 14 13 12 14 17 13 11 20 18 8 8 17 22 20 12 5 3 6 1 2 3 7 8 11 13 13 12 6 8 11 6 8 12 8 3 1 6 10 13 16 8 4 6 2 2 6 11 15 11 7 6 8 13 14 5 3 6 8 7 4 4 3 1 1 1 3 9 5 6 6 9 4 5 4 7 12 10 8 10 11 11 10 8 9 9 8
15 14 15 14 13 16 15 17 28 28 13 8 12 19 24 17 8 3 8 4 2 1 1 5 9 11 16 15 7 9 12 5 5 10 6 3 3 3 1 4 7 12 5 3 3 2 1 0 2 6 5 4 8 7 5 7 7 9 8 7 8 4 3 2 1 2 1 5 7 6 10 7 7 4 6 3 2 5 6 6 8 10 11 10 7 6 6 5
16 16 15 15 16 16 11 16 33 29 15 13 17 23 20 8 4 7 8 1 2 3 4 5 9 15 22 17 8 12 14 7 10 15 6 3 3 1 6 5 3 6 4 2 3 1 3 5 3 1 0 4 10 6 4 3 8 9 6 6 6 3 2 1 1 1 5 6 1 0 6 9 9 4 2 3 4 4 5 6 7 9 10 9 4 2 3 3
17 17 16 18 18 17 19 21 19 17 22 22 18 18 10 5 7 7 3 4 1 6 7 6 10 18 22 18 13 15 14 10 13 17 13 10 7 9 12 10 8 8 7 8 6 3 4 3 1 2 1 4 10 8 3 2 6 5 5 7 6 2 2 3 3 3 6 4 1 2 1 7 11 7 6 11 12 8 7 6 8 9 10 8 4 2 2 4
17 17 18 20 19 23 32 26 10 8 21 26 18 9 6 7 9 8 5 4 2 4 8 9 13 21 23 17 14 16 14 12 15 16 16 13 12 11 6 8 13 7 7 11 8 6 4 1 2 4 2 4 9 9 5 4 5 6 7 8 6 5 5 8 6 4 5 3 2 1 1 5 10 6 6 12 11 7 5 6 8 9 9 8 6 6 6 6
16 18 20 19 19 28 34 24 15 18 24 25 14 5 9 9 7 13 14 5 1 3 7 13 17 20 22 16 14 17 12 9 16 17 14 12 10 10 4 7 14 4 6 10 5 8 9 2 7 10 4 7 11 7 6 8 7 6 6 4 3 4 5 7 7 5 3 1 2 3 2 5 5 2 2 6 6 7 7 6 6 6 6 6 6 7 8 7
15 18 20 19 22 33 34 23 22 26 23 18 9 6 11 8 7 13 14 4 2 3 6 15 20 18 16 12 14 18 8 7 17 15 13 13 11 13 11 12 17 10 9 10 4 7 8 1 3 3 4 10 10 3 7 12 7 4 2 1 3 2 2 2 1 1 0 0 3 5 4 5 3 6 10 9 7 9 8 4 3 5 4 3 5 6 6 6
15 18 19 22 29 37 35 25 25 27 20 9 7 8 7 7 9 9 9 9 6 6 8 13 17 15 11 7 13 15 3 4 18 13 9 15 12 14 13 10 15 14 11 10 6 6 6 2 2 3 5 10 7 6 9 9 6 5 4 5 2 2 2 2 1 2 1 4 4 4 6 6 5 9 10 6 6 8 7 5 3 3 3 3 4 3 4 5
14 17 17 23 34 37 32 26 26 26 16 5 7 9 6 10 12 6 9 15 11 10 10 10 11 13 10 6 9 13 6 6 15 11 8 12 10 12 12 9 13 15 12 8 3 3 5 5 2 1 7 5 1 5 8 2 2 6 7 7 4 2 2 1 3 1 2 6 3 3 8 7 5 5 2 2 5 7 6 4 4 1 3 3 3 3 3 4
13 13 13 27 40 35 28 28 28 22 10 5 10 13 11 13 14 8 10 17 16 13 9 5 7 10 12 10 8 11 12 11 12 9 10 11 8 12 15 11 12 14 11 5 2 3 6 7 2 2 3 3 2 5 7 2 1 1 4 8 6 3 4 4 3 3 4 6 4 4 6 7 8 6 3 6 8 8 6 2 5 2 2 2 3 3 3 4
12 7 10 31 42 33 29 30 25 15 7 7 13 14 12 13 15 13 12 15 17 15 10 7 5 5 10 14 13 13 14 14 13 10 9 9 6 13 18 12 11 17 13 5 4 6 5 5 4 1 2 5 4 6 9 8 3 2 2 7 3 2 4 5 4 2 3 6 4 3 2 4 7 7 8 10 7 6 6 2 4 4 2 2 2 3 3 4
7 4 12 27 31 28 35 30 16 9 7 8 12 12 12 13 13 16 18 17 14 11 12 13 8 4 9 14 16 16 14 15 16 12 10 11 9 13 18 12 13 19 12 3 4 5 2 2 6 4 3 6 6 7 10 12 9 6 7 9 6 2 1 2 3 2 2 4 4 3 4 5 3 4 8 10 7 5 5 3 1 4 2 3 3 3 3 3
4 6 12 17 22 27 30 19 8 8 7 9 14 15 15 12 11 16 21 18 11 5 7 14 14 8 8 12 14 14 13 13 14 10 9 13 9 9 15 15 16 18 11 6 8 6 2 3 8 7 7 7 4 1 2 7 10 9 8 10 11 8 5 5 6 3 0 2 2 2 6 6 2 4 6 8 5 3 1 2 2 3 5 6 4 4 3 3
5 11 7 12 26 34 24 8 7 9 8 10 14 15 15 12 12 18 21 17 10 4 3 10 15 12 9 13 14 13 14 13 14 11 9 14 13 10 16 20 19 18 11 6 6 2 1 4 8 7 6 4 3 4 2 1 3 3 3 6 9 8 7 7 6 4 3 2 1 1 5 5 2 5 5 5 2 1 1 4 4 4 6 5 4 4 3 4
6 16 12 6 23 33 17 6 9 7 6 12 16 17 18 15 13 16 19 18 10 4 3 7 12 12 10 11 13 14 15 12 14 14 11 14 12 6 15 24 22 17 9 5 6 4 2 5 7 7 4 3 4 3 2 2 1 5 5 3 5 7 6 2 1 4 6 5 4 3 6 5 1 3 2 3 1 1 4 5 4 4 3 3 4 4 3 4
6 12 13 14 24 27 12 7 11 8 9 18 21 21 18 15 16 16 16 18 12 6 6 7 10 13 10 10 12 17 17 11 10 11 7 10 7 2 15 26 24 19 12 9 11 7 4 5 7 9 7 3 2 2 4 4 6 7 5 4 6 8 6 1 1 3 5 10 12 8 6 4 2 2 2 3 3 4 5 4 4 4 2 2 3 3 4 4
6 7 7 10 19 20 12 12 16 13 16 22 22 23 18 11 16 19 17 17 14 10 7 7 11 13 11 11 12 16 15 7 8 9 4 6 3 1 15 26 23 18 10 8 10 5 3 5 6 10 12 11 11 8 7 8 7 4 5 10 12 13 14 7 2 5 8 9 12 11 7 3 3 3 4 4 3 3 4 3 3 4 4 3 4 3 3 3
4 6 5 5 8 12 13 15 19 16 18 20 17 19 20 12 11 19 21 18 17 15 9 7 13 13 14 16 15 15 9 2 2 9 8 8 4 1 14 24 22 16 10 12 12 5 3 2 4 8 10 8 6 5 7 14 12 10 15 18 16 15 16 9 2 8 8 5 9 15 8 3 5 8 6 5 5 3 3 3 2 4 4 3 4 4 3 4
5 6 6 5 5 11 13 14 18 16 17 19 13 13 20 16 12 16 19 15 16 17 10 7 12 13 16 19 16 15 10 4 5 11 8 8 5 3 10 18 17 14 11 13 12 6 4 4 8 10 6 2 4 6 13 19 17 19 19 19 17 15 16 14 12 11 8 7 10 14 10 8 10 10 7 6 4 3 5 4 3 4 4 4 4 5 5 6
5 5 8 10 8 11 13 13 16 19 22 21 13 14 21 21 17 16 13 10 14 18 9 6 12 16 20 23 17 14 12 6 9 11 6 7 9 8 10 11 11 12 10 9 9 5 4 7 9 9 2 4 3 8 15 17 14 15 19 21 21 19 19 21 22 16 13 11 11 7 13 18 15 10 9 7 4 6 9 4 1 3 6 6 5 5 5 6
6 5 8 13 10 11 17 18 17 21 26 22 13 15 22 23 22 17 10 10 15 18 12 9 12 16 21 23 18 16 17 13 13 13 10 12 14 12 12 9 8 9 9 9 7 3 4 6 6 8 4 5 3 6 14 14 8 10 17 20 21 24 25 26 25 20 17 17 10 5 7 16 10 8 10 10 7 7 6 4 3 5 7 7 6 6 7 7
7 5 7 8 7 10 18 22 20 19 21 18 13 14 18 21 23 16 11 14 17 16 16 15 16 18 21 22 17 17 22 22 23 23 21 20 16 13 13 11 11 13 13 12 8 2 3 5 6 7 4 4 2 3 8 10 9 10 12 15 21 26 26 23 18 12 13 18 12 2 8 13 6 8 9 8 4 3 3 6 8 8 8 9 9 9 9 9
12 10 10 5 3 8 13 16 19 18 15 15 13 14 16 21 23 17 11 12 17 18 20 20 20 18 18 21 20 20 24 23 24 26 26 24 21 16 11 10 15 18 14 11 8 4 3 3 4 7 6 1 2 5 6 5 5 5 10 19 24 24 20 16 13 13 17 17 10 6 13 11 8 10 8 5 5 7 9 11 10 10 11 11 10 10 9 10
15 13 13 7 3 9 12 12 16 16 14 16 18 18 18 20 22 20 12 8 13 17 20 24 25 17 13 21 26 25 23 18 15 18 17 15 14 10 7 9 16 18 13 9 6 4 6 6 5 8 9 4 2 6 8 7 5 4 15 21 21 19 16 12 12 17 20 13 9 11 14 6 9 11 10 8 10 13 12 11 11 12 12 10 9 9 9 9
Wind_Direction
215 208 207 208 210 214 216 216 214 215 219 219 220 218 215 210 208 211 208 204 202 202 202 201 206 204 195 186 190 195 192 191 191 207 222 212 206 194 216 220 204 194 180 164 156 148 120 99 109 113 127 104 31 301 38 14 126 241 228 219 230 208 177 156 176 185 49 34 39 102 192 222 209 168 172 185 207 160 156 191 165 179 231 258 10 63 152 155
217 213 207 205 208 212 216 220 215 215 221 220 219 220 217 210 207 208 207 207 206 207 205 200 202 195 184 180 186 193 189 189 199 235 222 206 203 199 227 226 206 200 185 173 172 165 154 122 129 137 136 135 43 350 261 300 319 275 157 227 233 147 96 53 33 76 290 343 17 54 181 216 232 153 166 219 205 180 206 201 186 213 207 203 193 147 157 162
217 216 210 202 204 210 213 221 218 216 220 220 218 216 217 214 211 210 208 208 207 206 205 202 198 185 178 170 173 185 180 173 203 247 219 205 211 200 211 230 206 200 192 181 180 183 181 147 142 147 126 166 108 133 207 203 279 207 198 232 203 93 95 134 308 234 277 315 332 29 143 205 215 136 168 233 227 200 223 214 188 216 207 178 156 156 165 169
217 216 213 204 202 206 210 216 220 220 217 217 217 214 215 215 212 210 208 206 204 203 201 203 196 180 172 158 156 167 157 137 233 241 221 209 211 197 205 230 208 202 197 185 178 170 158 141 136 141 142 167 105 192 200 174 227 163 209 234 120 130 171 145 179 303 280 287 314 342 146 211 182 159 196 216 234 227 232 224 209 220 199 167 157 165 173 173
217 217 214 208 201 202 208 212 217 221 218 217 218 215 215 214 212 211 210 206 202 201 200 200 193 179 169 160 159 156 141 146 219 230 221 208 202 192 209 229 214 206 200 193 172 150 145 138 127 126 156 167 140 194 193 120 32 181 191 53 111 162 172 128 165 301 286 264 276 256 226 178 129 184 208 211 235 242 250 236 228 232 189 162 164 168 174 179
215 215 212 209 201 199 205 209 215 219 220 219 217 215 216 215 212 210 211 206 199 198 198 195 190 179 171 169 169 163 161 191 145 218 208 199 197 192 212 225 215 208 200 188 162 155 154 149 159 164 168 171 175 193 140 103 310 228 190 108 149 191 135 110 47 229 240 257 243 256 313 128 179 220 205 215 238 244 47 339 263 253 179 159 160 165 175 185
213 212 212 209 202 198 201 207 212 215 219 220 218 216 214 215 214 210 206 202 198 195 193 191 188 180 171 171 172 173 196 223 43 299 190 189 195 195 209 217 209 200 192 178 164 170 168 168 186 177 169 173 191 191 123 114 258 252 214 142 170 223 146 76 358 297 244 254 268 334 305 217 227 244 165 221 240 233 78 23 290 218 158 153 160 170 181 187
211 210 210 208 206 201 202 206 207 213 218 219 220 215 212 213 216 215 206 200 198 194 192 189 184 180 172 167 167 181 210 210 29 311 177 180 190 192 201 205 200 192 186 182 176 176 171 180 183 166 192 193 174 170 148 158 201 237 223 122 154 246 280 347 321 277 273 256 280 295 253 238 240 285 269 242 245 224 150 103 143 156 156 163 175 179 184 188
212 210 209 208 207 204 205 208 206 210 215 217 220 214 214 216 217 219 210 198 195 193 192 187 179 179 176 166 166 189 202 199 77 153 173 178 185 190 197 195 190 187 184 184 180 176 177 190 180 163 199 179 162 160 165 196 214 221 189 113 156 235 314 327 314 308 6 277 217 253 256 245 224 330 254 250 253 197 153 140 148 156 168 180 187 185 188 191
211 211 211 208 207 204 205 209 208 208 212 214 216 215 214 217 220 220 213 201 193 191 191 186 176 175 175 165 175 197 190 193 189 166 173 177 181 183 190 189 184 181 176 177 178 179 185 182 158 142 125 132 166 161 170 197 191 148 156 130 226 283 306 305 306 309 321 280 203 242 274 301 179 236 239 244 308 167 160 158 166 172 184 189 192 190 193 196
208 212 213 210 209 205 203 210 211 209 212 212 212 219 216 216 220 220 221 212 198 192 190 183 175 175 173 167 187 194 172 182 181 173 175 174 175 175 181 183 179 176 168 167 176 178 174 149 135 135 140 142 152 147 169 183 92 109 143 161 277 285 285 264 278 285 298 271 197 226 279 278 174 233 242 147 83 180 175 174 185 196 198 192 195 192 196 204
206 210 213 213 211 207 205 210 215 212 210 213 212 217 218 218 220 225 230 214 200 196 190 181 178 176 171 176 200 178 160 177 172 170 177 172 171 172 175 175 174 177 168 160 168 163 149 145 146 138 140 152 139 140 171 152 117 124 141 201 248 267 267 243 246 240 200 249 170 177 280 249 202 223 238 127 123 179 183 190 195 208 210 197 197 195 199 206
204 207 211 214 212 209 206 206 216 218 210 212 215 219 220 219 219 224 230 209 197 193 188 182 179 174 169 185 191 165 165 177 170 168 178 177 173 172 173 171 172 177 169 161 161 152 152 156 156 121 118 155 133 111 134 120 150 149 152 250 238 263 262 223 219 200 200 223 148 163 274 246 210 231 230 156 154 170 188 207 206 211 213 207 202 202 206 204
201 204 208 211 212 210 206 204 212 218 215 213 216 223 224 222 218 215 223 212 198 192 187 180 175 170 174 183 153 166 169 171 171 171 178 179 172 170 173 173 175 177 172 169 161 152 157 150 125 111 96 124 121 127 126 110 176 153 147 217 220 254 239 138 165 181 199 209 136 177 256 258 257 259 211 166 185 193 216 216 207 211 212 213 210 209 213 207
201 203 205 207 211 210 207 206 206 211 216 216 216 224 226 229 227 212 218 215 201 192 184 175 170 163 162 218 167 169 164 161 172 174 177 176 170 165 169 171 167 170 171 168 159 149 151 141 122 127 99 87 140 145 129 116 156 151 190 198 187 234 223 133 155 186 215 227 151 193 244 262 263 273 71 138 213 213 233 228 207 209 210 212 217 215 218 215
200 202 205 205 209 212 211 208 206 209 210 216 221 226 227 231 235 225 226 220 201 186 173 169 170 160 156 185 158 162 160 161 172 174 173 173 173 164 151 149 139 140 146 144 146 140 142 143 123 116 113 151 169 156 139 147 148 151 223 210 183 216 240 198 142 161 263 175 189 216 251 267 251 264 84 115 231 226 234 235 216 208 213 218 222 221 222 220
198 200 203 203 206 210 213 212 212 212 209 214 221 227 234 236 239 236 242 228 198 178 168 169 167 163 169 137 146 167 167 158 166 168 167 170 172 160 145 138 130 127 120 122 137 137 139 141 129 133 144 175 182 173 182 193 172 151 221 220 207 212 240 231 143 75 291 219 221 221 243 259 262 283 282 164 212 238 240 240 230 214 215 218 219 224 225 222
200 200 200 202 204 205 210 213 216 220 217 215 220 231 242 244 246 251 263 240 193 173 173 170 160 165 225 170 164 172 160 152 159 162 161 163 164 156 144 134 135 133 122 125 145 151 155 150 177 185 179 188 185 189 201 197 176 178 195 206 216 215 230 242 197 74 70 222 237 221 232 255 262 276 279 248 177 233 251 248 242 234 226 219 217 223 224 222
207 208 205 204 204 207 211 212 215 221 223 221 224 228 240 261 266 264 258 240 200 176 171 162 164 174 202 180 164 141 152 154 154 159 156 152 153 149 140 137 144 147 148 156 170 172 156 140 190 194 188 192 189 197 208 200 189 192 198 208 220 218 224 240 205 71 16 265 251 241 242 258 261 259 262 253 180 223 255 256 250 247 238 228 222 225 224 224
214 214 212 210 207 211 216 218 219 221 222 221 213 194 183 176 198 260 242 225 222 218 171 165 175 168 109 146 139 130 147 155 150 157 158 152 149 143 138 145 153 167 173 168 167 168 165 171 192 199 193 189 187 198 203 192 196 199 202 216 224 229 229 211 141 97 25 280 260 248 254 263 264 259 255 253 228 235 253 252 247 243 240 237 233 232 227 228
213 215 219 219 216 218 218 223 224 222 223 216 199 178 168 179 171 222 223 216 232 239 244 172 167 128 119 137 139 135 134 150 149 152 159 155 150 149 155 164 163 180 181 162 143 138 182 196 195 194 190 183 184 193 189 158 183 197 201 216 223 232 242 207 167 115 87 270 262 258 269 269 264 262 259 251 244 247 250 250 251 247 240 237 239 241 238 238
209 212 219 221 225 228 226 230 226 226 225 211 202 201 244 207 179 96 28 250 231 218 221 171 147 93 122 134 144 143 119 132 147 153 163 159 162 167 170 174 171 173 165 147 130 145 195 209 189 181 180 175 179 188 190 184 183 193 194 211 223 216 246 238 195 179 133 252 274 283 283 277 271 265 259 251 244 247 247 246 251 252 247 237 234 239 241 248
207 209 216 218 224 229 233 239 225 223 221 210 205 207 236 223 202 234 327 311 248 196 166 170 154 126 136 140 152 149 130 145 156 169 172 166 172 174 165 172 169 151 154 159 162 168 190 204 180 168 170 173 178 183 187 185 177 189 186 201 219 169 216 241 186 168 193 241 288 297 290 279 274 264 254 245 235 237 241 242 246 246 249 247 239 235 233 240
205 206 213 217 223 227 231 235 219 219 219 214 216 215 215 223 221 243 307 310 285 218 180 176 165 151 150 152 163 160 142 153 161 167 172 170 164 160 164 170 156 143 169 178 174 173 145 154 161 156 170 176 172 175 181 184 182 198 210 212 213 174 218 252 33 313 238 201 273 300 291 270 259 256 255 246 225 232 237 240 248 239 237 249 250 245 235 232
206 205 208 215 221 222 217 217 216 216 214 217 224 222 215 213 225 200 63 288 262 274 190 177 165 161 152 150 165 162 126 144 169 160 167 174 163 153 166 170 156 161 176 178 175 183 142 128 149 155 172 178 169 177 184 183 186 200 221 221 219 210 219 232 6 319 272 234 107 332 289 262 244 264 267 267 244 249 242 233 249 245 229 238 247 247 238 233
206 204 206 210 205 198 198 211 218 210 210 224 223 217 215 211 207 153 105 285 249 221 182 170 161 166 155 148 154 138 135 163 160 154 163 176 170 155 160 162 174 170 169 170 175 195 157 149 165 165 170 175 176 189 185 177 190 209 196 199 206 204 193 186 233 290 279 269 26 358 277 279 303 283 271 271 268 263 247 234 240 243 235 230 234 241 238 236
207 208 209 209 201 188 189 203 201 195 204 228 214 200 206 201 179 131 120 259 241 180 165 157 173 171 163 161 151 136 157 153 101 156 169 174 173 170 170 163 159 168 159 154 185 188 137 153 174 167 164 174 187 196 182 182 199 201 150 162 177 182 183 192 215 252 281 314 283 207 249 284 283 273 261 259 268 264 248 239 232 228 235 227 221 229 230 232
209 214 210 211 208 197 205 203 169 198 211 203 195 195 188 176 159 121 143 238 210 129 160 149 154 166 161 164 157 138 140 140 137 174 170 166 169 175 184 176 164 160 157 168 189 171 124 158 173 165 165 186 195 172 162 179 201 171 141 151 163 171 173 177 191 248 334 332 272 201 139 274 270 254 234 226 250 260 252 244 241 233 236 231 222 225 225 227
211 214 212 213 212 212 223 221 208 221 215 172 180 189 169 159 149 113 235 239 115 70 178 147 145 161 154 157 160 127 117 137 144 152 151 155 141 51 184 179 156 146 146 182 180 145 127 182 176 168 178 190 157 127 155 179 185 119 135 117 101 94 79 82 115 52 28 285 266 219 158 255 280 239 214 210 233 257 260 252 252 247 244 240 231 230 231 232
214 214 217 212 213 219 221 226 230 228 205 177 194 169 153 154 146 172 221 222 93 97 210 153 158 157 153 152 151 137 130 120 114 123 132 134 72 2 108 112 127 137 119 28 83 81 44 26 181 172 192 159 116 96 140 170 140 125 131 104 90 79 56 53 63 62 291 261 258 208 177 221 284 234 200 211 236 271 274 260 256 254 255 252 241 241 250 258
215 216 218 214 219 218 202 226 234 225 206 203 184 156 150 156 170 204 212 118 46 187 169 168 160 152 157 155 142 145 135 117 136 139 142 127 109 164 132 101 85 123 115 72 85 42 98 137 168 129 276 123 117 103 43 100 138 135 135 124 113 90 78 98 54 123 237 248 270 217 182 205 241 229 177 310 311 281 262 264 269 267 268 265 254 251 267 275
220 220 219 220 225 220 217 227 227 215 216 208 176 157 159 178 195 208 189 106 149 197 165 166 166 158 163 160 150 151 138 133 154 152 153 155 160 173 164 166 160 142 165 176 156 134 119 142 153 67 255 167 136 132 76 98 162 146 137 144 137 129 154 194 206 197 231 236 81 10 179 213 243 259 285 287 280 262 243 251 268 272 275 277 289 300 267 263
225 224 225 225 227 229 233 233 213 204 212 196 178 168 171 201 201 187 186 168 170 185 158 164 174 164 163 164 157 151 140 147 162 158 157 159 165 178 180 174 169 159 171 164 142 140 137 336 226 163 204 207 170 158 147 168 183 162 157 164 164 160 181 207 206 206 240 229 151 112 115 249 264 276 274 272 279 288 274 260 263 268 276 286 304 303 280 265
231 229 232 231 232 238 241 237 222 220 203 185 181 183 186 205 182 174 198 215 100 182 169 164 167 166 169 170 162 155 144 155 164 156 155 158 167 179 172 179 188 175 120 147 149 163 164 203 203 178 161 182 183 176 149 143 161 176 169 177 194 177 195 210 203 210 225 187 172 170 175 244 250 27 308 258 269 282 274 271 275 272 273 286 293 289 280 272
237 234 238 241 243 245 244 234 223 222 208 188 188 199 197 193 164 184 198 185 131 202 194 171 164 168 178 172 164 163 150 160 165 153 155 165 175 182 172 180 192 177 140 157 167 173 174 187 178 143 123 164 168 157 129 130 149 193 161 187 235 206 177 179 210 239 159 281 212 194 231 256 270 310 285 265 269 270 257 246 273 281 276 273 271 272 278 282
241 241 244 242 244 246 242 228 215 215 213 197 196 208 205 185 184 192 178 166 166 160 183 185 168 167 179 170 168 169 123 142 162 152 163 175 181 186 178 175 184 179 165 157 147 173 177 121 100 77 132 167 162 150 154 146 156 175 180 199 205 47 70 138 171 52 64 258 233 192 251 272 287 286 272 258 280 281 257 215 206 270 281 268 270 269 274 286
246 251 247 240 241 243 238 225 209 206 209 212 210 203 193 197 197 175 163 175 162 146 178 199 177 169 167 158 172 167 132 136 160 154 161 178 187 187 182 179 182 183 177 154 130 186 152 107 74 93 143 160 32 141 160 159 149 169 188 178 134 41 4 202 225 144 181 248 252 202 243 259 258 264 227 209 276 294 273 216 160 202 270 274 286 278 270 279
253 257 252 246 244 238 230 220 205 198 204 222 212 197 190 201 196 174 176 179 167 162 183 207 189 177 166 159 161 162 153 151 165 165 160 174 190 182 180 180 178 184 183 154 111 162 138 106 67 334 137 124 34 155 169 205 230 189 180 158 146 210 210 184 208 206 199 236 257 225 240 252 235 222 210 252 283 315 300 222 130 157 257 283 294 298 296 291
256 257 254 250 247 236 218 209 198 195 207 212 209 201 192 196 191 181 177 178 177 175 183 210 216 192 178 166 149 156 168 164 164 167 167 180 186 179 183 177 167 179 182 169 158 159 134 117 143 233 126 132 148 187 189 184 166 31 161 171 177 252 208 188 191 208 208 221 241 242 244 242 218 204 212 231 257 299 292 273 144 166 216 257 284 303 306 302
241 240 256 249 246 230 209 199 192 202 211 205 209 202 190 189 187 184 179 176 181 182 189 203 212 206 188 169 151 158 170 167 167 170 177 183 172 173 185 179 163 171 171 148 157 158 143 142 143 129 138 163 179 201 197 179 165 168 179 184 190 185 208 226 200 210 232 219 233 260 265 250 194 183 206 209 226 264 284 294 200 156 205 256 260 267 279 293
196 245 256 229 214 204 195 192 197 203 201 205 207 199 187 176 166 179 184 178 175 187 196 195 195 193 182 169 162 164 161 162 172 177 178 180 175 176 186 179 162 159 154 150 166 172 184 144 136 143 175 186 176 161 187 176 176 182 186 194 195 182 170 192 194 184 252 244 224 265 279 268 175 164 206 210 234 273 294 272 254 182 221 251 253 238 250 273
205 236 220 161 177 181 178 194 205 193 204 202 198 195 183 166 160 175 182 178 174 165 186 197 190 183 179 176 172 167 161 162 174 182 186 187 190 189 176 166 157 156 154 147 155 154 57 115 122 135 164 162 92 39 15 255 212 211 221 213 201 191 188 199 199 165 161 212 71 48 289 282 148 155 205 223 235 33 190 228 228 213 217 229 246 243 242 254
220 238 243 192 183 179 175 215 199 187 207 187 187 194 184 172 167 169 174 179 178 149 165 200 186 180 190 183 172 169 165 166 178 182 184 187 193 191 165 158 153 157 157 128 142 163 149 126 113 109 112 84 63 59 51 23 303 234 232 218 201 204 198 216 266 152 165 194 174 183 249 253 136 128 199 252 242 196 243 237 227 235 220 210 240 252 244 252
235 247 264 256 213 193 188 216 197 189 188 181 185 189 183 177 170 164 170 176 171 158 176 187 181 185 193 182 176 175 167 166 186 189 183 181 186 176 163 161 158 164 175 168 168 177 169 152 137 126 132 149 150 184 204 196 207 215 201 180 204 204 179 137 341 160 202 209 189 195 239 225 135 107 194 232 232 223 230 227 230 249 257 243 250 255 251 257
251 254 259 240 214 201 205 209 197 188 179 180 183 179 174 176 174 166 162 164 168 172 175 181 183 184 180 172 179 181 175 172 183 182 169 156 155 134 162 164 166 172 176 155 150 148 139 167 165 146 155 175 181 193 201 175 169 185 179 190 205 199 190 190 159 193 224 207 184 206 230 157 136 219 214 197 209 230 222 206 221 240 249 258 251 253 257 261
239 254 249 232 203 200 213 206 191 183 175 174 177 176 169 157 166 172 165 164 174 174 169 182 182 180 176 170 172 180 186 343 129 161 156 148 143 192 166 166 172 174 150 128 132 119 106 167 224 193 181 177 161 151 122 120 141 187 194 196 201 199 199 198 190 216 208 146 189 218 216 145 183 206 215 211 198 209 231 225 215 225 240 249 244 257 265 263
228 248 238 240 211 197 207 201 186 179 172 168 166 172 167 151 148 173 176 174 172 169 170 187 181 180 176 169 168 172 166 52 111 147 145 142 112 73 159 165 170 166 139 136 147 134 120 179 213 205 203 11 53 109 126 138 169 191 188 190 195 193 197 202 214 214 156 138 227 218 189 216 221 196 213 236 192 211 268 259 216 218 243 245 244 261 268 270
229 245 232 241 241 202 191 186 181 175 169 169 164 160 163 158 156 167 173 167 168 173 175 182 188 186 175 169 167 163 154 129 142 147 129 133 127 118 146 164 175 165 138 147 171 153 141 192 200 183 155 11 68 136 151 163 178 180 180 189 192 190 195 205 218 210 165 188 236 167 168 219 224 186 209 235 218 257 277 282 192 227 253 250 241 249 259 269
224 250 240 242 245 206 180 168 170 175 173 171 166 163 163 161 162 162 152 147 169 182 175 167 188 188 178 175 168 162 167 162 158 166 158 148 146 144 149 163 188 181 157 160 182 184 172 188 180 157 117 24 43 156 170 170 158 171 190 195 191 195 201 207 215 206 191 217 244 98 178 235 225 183 218 240 251 271 297 327 295 267 270 272 269 275 278 280
219 232 228 233 244 209 180 167 166 174 176 170 168 171 164 159 160 155 150 160 167 178 179 173 178 180 181 183 177 177 185 177 171 174 165 151 152 161 167 172 175 177 176 171 173 207 203 180 157 149 127 30 18 165 169 166 164 177 196 204 205 207 208 213 216 198 204 235 247 267 269 259 210 177 219 240 261 284 272 264 265 260 259 267 274 281 285 283
227 234 229 227 228 195 176 170 169 167 174 176 169 168 165 162 159 146 145 173 168 169 179 177 173 178 183 184 185 189 193 188 180 174 166 162 166 167 167 167 162 166 174 174 167 159 166 167 149 153 162 198 186 151 137 131 141 178 215 218 213 211 210 214 215 199 208 225 217 220 260 252 171 166 199 214 230 238 239 245 254 256 254 259 267 271 274 273
226 234 237 238 209 179 164 167 175 170 174 176 166 165 167 161 154 144 141 177 180 174 181 177 171 171 180 190 196 195 192 191 178 167 165 163 156 138 117 138 157 163 163 159 155 143 145 148 148 166 175 184 170 149 135 111 96 229 234 218 202 201 203 204 217 217 214 210 185 206 238 226 136 159 187 197 221 233 237 242 247 253 255 253 252 257 263 268